{"data":{"norad_id":66903,"intl_designator":"2025-283AB","name":"STARLINK-36077","alt_names":[],"object_type":"PAYLOAD","status":"ACTIVE","operator":null,"country":"US","launch_date":"2025-12-04","launch_site_code":"AFWTR","launch_vehicle":null,"mission":null,"orbit_class":"UNKNOWN","rcs_meters":null,"size_class":null,"mass_kg":null,"dimensions":null,"purposes":["comms"],"wikipedia_slug":null,"has_3d_model":false,"image_url":null,"decayed_at":null,"tle_current":{"epoch":"2026-05-25T02:27:37.753920Z","epoch_age_seconds":62245,"freshness":"FRESH","line1":"1 66903U 25283AB  26145.10252030  .00021752  00000+0  74425-3 0  9996","line2":"2 66903  53.1579  29.2088 0000557  81.2631 278.8433 15.30205972 27540","mean_motion":15.30205972,"eccentricity":5.57e-5,"inclination_deg":53.1579,"raan_deg":29.2088,"arg_perigee_deg":81.2631,"mean_anomaly_deg":278.8433,"bstar":0.00074425,"rev_number":2754,"period_min":94.104978437504,"perigee_km":474.81550744471,"apogee_km":475.57896887884,"semimajor_km":6853.3342381618,"source":"CELESTRAK","updated_at":"2026-05-25T13:38:21.383581Z"}}}